Weather History for Brownwood, TX

Change the Weather History Date:

Tuesday, July 2, 2013

  Actual Average (KABI) Record (KABI)
Temperature  
Mean Temperature 72 °F 82 °F  
Max Temperature 89 °F 93 °F 107 °F (1980)
Min Temperature 55 °F 71 °F 57 °F (2013)
Degree Days  
Heating Degree Days 0 0  
Month to date heating degree days 0  
Since 1 June heating degree days 1  
Since 1 July heating degree days 0  
Cooling Degree Days 7 17  
Month to date cooling degree days 34  
Year to date cooling degree days 866  
Since 1 June cooling degree days 469  
Growing Degree Days 22 (Base 50)    
Moisture  
Dew Point 44 °F    
Average Humidity 37    
Maximum Humidity 77    
Minimum Humidity 17    
Precipitation  
Precipitation 0.00 in 0.07 in 2.91 in (1986)
Month to date precipitation 0.14  
Year to date precipitation 12.64  
Sea Level Pressure  
Sea Level Pressure 30.10 in    
Wind  
Wind Speed 5 mph (NNE)    
Max Wind Speed 14 mph    
Max Gust Speed 24 mph    
Visibility 10 miles    
Events      
T = Trace of Precipitation, MM = Missing Value Source: NWS Daily Summary

Daily Weather History Graph

Daily Weather History Graph

Search for Another Location

Airport:

Trip Planner

Search our weather history database for the weather conditions in past years. The results will help you decide how hot, cold, wet, or windy it might be!

Date:

Astronomy

Jul. 02, 2013 Rise Set
Actual Time 6:34 AM CDT 8:45 PM CDT
Civil Twilight 6:06 AM CDT 9:13 PM CDT
Nautical Twilight 5:32 AM CDT 9:47 PM CDT
Astronomical Twilight 4:55 AM CDT 10:24 PM CDT
Moon 2:27 AM CDT 4:08 PM CDT
Length of Visible Light 15h 06m
Length of Day
14h 10m
Waning Crescent, 26% of the Moon is Illuminated
Jul 2
Waning Crescent
Jul 8
New
Jul 15
First Quarter
Jul 22
Full
Jul 29
Last Quarter

Hourly Weather History & Observations

Time (CDT) Temp. Dew Point Humidity Pressure Visibility Wind Dir Wind Speed Gust Speed Precip Events Conditions
12:15 AM 68.0 °F 48.2 °F 49% 30.10 in 10.0 mi NNE 4.6 mph - N/A   Scattered Clouds
12:35 AM 68.0 °F 48.2 °F 49% 30.10 in 10.0 mi NNE 4.6 mph - N/A   Scattered Clouds
12:55 AM 68.0 °F 48.2 °F 49% 30.09 in 10.0 mi NNE 5.8 mph - N/A   Partly Cloudy
1:15 AM 66.2 °F 48.2 °F 52% 30.10 in 10.0 mi NE 3.5 mph - N/A   Partly Cloudy
1:35 AM 68.0 °F 48.2 °F 49% 30.10 in 10.0 mi NNE 5.8 mph - N/A   Partly Cloudy
1:55 AM 68.0 °F 48.2 °F 49% 30.09 in 10.0 mi NNE 3.5 mph - N/A   Mostly Cloudy
2:15 AM 66.2 °F 48.2 °F 52% 30.09 in 10.0 mi NE 3.5 mph - N/A   Overcast
2:35 AM 66.2 °F 48.2 °F 52% 30.10 in 10.0 mi NE 3.5 mph - N/A   Overcast
2:55 AM 62.6 °F 48.2 °F 59% 30.09 in 10.0 mi Calm Calm - N/A   Overcast
3:15 AM 60.8 °F 48.2 °F 63% 30.09 in 10.0 mi Calm Calm - N/A   Overcast
3:35 AM 62.6 °F 48.2 °F 59% 30.09 in 10.0 mi Calm Calm - N/A   Overcast
3:55 AM 64.4 °F 48.2 °F 56% 30.10 in 10.0 mi NNE 3.5 mph - N/A   Overcast
4:15 AM 62.6 °F 48.2 °F 59% 30.10 in 10.0 mi Calm Calm - N/A   Mostly Cloudy
4:35 AM 60.8 °F 48.2 °F 63% 30.10 in 10.0 mi Calm Calm - N/A   Mostly Cloudy
4:55 AM 59.0 °F 48.2 °F 67% 30.10 in 10.0 mi Calm Calm - N/A   Mostly Cloudy
5:15 AM 57.2 °F 48.2 °F 72% 30.11 in 10.0 mi Calm Calm - N/A   Overcast
5:35 AM 55.4 °F 48.2 °F 77% 30.11 in 10.0 mi Calm Calm - N/A   Overcast
5:55 AM 57.2 °F 48.2 °F 72% 30.11 in 10.0 mi Calm Calm - N/A   Overcast
6:15 AM 59.0 °F 48.2 °F 67% 30.12 in 9.0 mi NW 4.6 mph - N/A   Mostly Cloudy
6:35 AM 59.0 °F 50.0 °F 72% 30.12 in 9.0 mi NNW 4.6 mph - N/A   Partly Cloudy
6:55 AM 59.0 °F 48.2 °F 67% 30.13 in 9.0 mi NNW 5.8 mph - N/A   Clear
7:15 AM 60.8 °F 48.2 °F 63% 30.14 in 9.0 mi Calm Calm - N/A   Clear
7:35 AM 62.6 °F 48.2 °F 59% 30.14 in 10.0 mi NW 3.5 mph - N/A   Clear
7:55 AM 64.4 °F 48.2 °F 56% 30.14 in 10.0 mi Calm Calm - N/A   Clear
8:15 AM 66.2 °F 48.2 °F 52% 30.15 in 10.0 mi Calm Calm - N/A   Clear
8:55 AM 73.4 °F 48.2 °F 41% 30.15 in 10.0 mi North 5.8 mph - N/A   Clear
9:15 AM 77.0 °F 48.2 °F 36% 30.15 in 10.0 mi NNE 5.8 mph - N/A   Clear
9:35 AM 78.8 °F 46.4 °F 32% 30.16 in 10.0 mi NE 6.9 mph - N/A   Clear
9:55 AM 78.8 °F 44.6 °F 30% 30.16 in 10.0 mi NNE 8.1 mph - N/A   Clear
10:15 AM 80.6 °F 44.6 °F 28% 30.16 in 10.0 mi NE 8.1 mph - N/A   Clear
10:35 AM 80.6 °F 44.6 °F 28% 30.16 in 10.0 mi ENE 12.7 mph 18.4 mph N/A   Clear
10:55 AM 82.4 °F 46.4 °F 28% 30.16 in 10.0 mi NE 11.5 mph 17.3 mph N/A   Clear
11:15 AM 82.4 °F 46.4 °F 28% 30.16 in 10.0 mi NNE 9.2 mph 18.4 mph N/A   Clear
11:35 AM 82.4 °F 44.6 °F 26% 30.15 in 10.0 mi NNE 11.5 mph 18.4 mph N/A   Clear
11:55 AM 82.4 °F 46.4 °F 28% 30.15 in 10.0 mi ENE 5.8 mph 19.6 mph N/A   Clear
12:15 PM 82.4 °F 44.6 °F 26% 30.14 in 10.0 mi NE 9.2 mph - N/A   Partly Cloudy
12:35 PM 82.4 °F 44.6 °F 26% 30.14 in 10.0 mi North 8.1 mph 17.3 mph N/A   Clear
12:55 PM 84.2 °F 44.6 °F 25% 30.13 in 10.0 mi North 12.7 mph 19.6 mph N/A   Scattered Clouds
1:15 PM 84.2 °F 44.6 °F 25% 30.13 in 10.0 mi North 10.4 mph 20.7 mph N/A   Partly Cloudy
1:35 PM 84.2 °F 42.8 °F 23% 30.12 in 10.0 mi North 11.5 mph 19.6 mph N/A   Clear
1:55 PM 86.0 °F 44.6 °F 23% 30.11 in 10.0 mi NE 5.8 mph 17.3 mph N/A   Clear
2:15 PM 86.0 °F 41.0 °F 20% 30.11 in 10.0 mi North 10.4 mph 16.1 mph N/A   Clear
2:35 PM 86.0 °F 41.0 °F 20% 30.10 in 10.0 mi NE 8.1 mph - N/A   Clear
2:55 PM 86.0 °F 41.0 °F 20% 30.09 in 10.0 mi North 11.5 mph 18.4 mph N/A   Partly Cloudy
3:15 PM 86.0 °F 39.2 °F 19% 30.08 in 10.0 mi North 8.1 mph 16.1 mph N/A   Partly Cloudy
3:35 PM 87.8 °F 39.2 °F 18% 30.07 in 10.0 mi NNW 13.8 mph 24.2 mph N/A   Clear
3:55 PM 87.8 °F 41.0 °F 19% 30.07 in 10.0 mi NNE 9.2 mph 19.6 mph N/A   Clear
4:15 PM 87.8 °F 39.2 °F 18% 30.06 in 10.0 mi NNW 10.4 mph 18.4 mph N/A   Clear
4:35 PM 89.6 °F 39.2 °F 17% 30.06 in 10.0 mi NNE 8.1 mph 19.6 mph N/A   Clear
4:55 PM 87.8 °F 37.4 °F 17% 30.05 in 10.0 mi North 10.4 mph 16.1 mph N/A   Clear
5:15 PM 87.8 °F 37.4 °F 17% 30.05 in 10.0 mi NNW 6.9 mph 18.4 mph N/A   Clear
5:35 PM 87.8 °F 39.2 °F 18% 30.04 in 10.0 mi North 11.5 mph - N/A   Clear
5:55 PM 87.8 °F 37.4 °F 17% 30.03 in 10.0 mi East 11.5 mph 17.3 mph N/A   Clear
6:15 PM 86.0 °F 37.4 °F 18% 30.03 in 10.0 mi North 9.2 mph - N/A   Clear
6:35 PM 86.0 °F 37.4 °F 18% 30.03 in 10.0 mi NE 10.4 mph - N/A   Clear
6:55 PM 86.0 °F 35.6 °F 17% 30.02 in 10.0 mi ENE 10.4 mph 16.1 mph N/A   Clear
7:15 PM 86.0 °F 37.4 °F 18% 30.02 in 10.0 mi ENE 10.4 mph - N/A   Clear
7:35 PM 86.0 °F 35.6 °F 17% 30.03 in 10.0 mi NE 9.2 mph - N/A   Clear
7:55 PM 84.2 °F 35.6 °F 18% 30.03 in 10.0 mi NE 8.1 mph - N/A   Clear
8:15 PM 84.2 °F 35.6 °F 18% 30.04 in 10.0 mi ENE 6.9 mph - N/A   Clear
8:35 PM 80.6 °F 37.4 °F 21% 30.04 in 10.0 mi ENE 4.6 mph - N/A   Clear
8:55 PM 78.8 °F 37.4 °F 23% 30.05 in 10.0 mi ENE 5.8 mph - N/A   Unknown
9:15 PM 77.0 °F 39.2 °F 26% 30.05 in 10.0 mi ENE 4.6 mph - N/A   Clear
9:35 PM 75.2 °F 39.2 °F 27% 30.06 in 10.0 mi ENE 4.6 mph - N/A   Clear
9:55 PM 75.2 °F 41.0 °F 29% 30.06 in 10.0 mi ENE 6.9 mph - N/A   Clear
10:15 PM 75.2 °F 41.0 °F 29% 30.06 in 10.0 mi East 6.9 mph - N/A   Partly Cloudy
10:35 PM 73.4 °F 41.0 °F 31% 30.07 in 10.0 mi East 5.8 mph - N/A   Partly Cloudy
10:55 PM 73.4 °F 41.0 °F 31% 30.08 in 10.0 mi East 6.9 mph - N/A   Partly Cloudy
11:15 PM 73.4 °F 42.8 °F 33% 30.09 in 10.0 mi ENE 5.8 mph - N/A   Partly Cloudy
11:35 PM 71.6 °F 42.8 °F 35% 30.09 in 10.0 mi Calm Calm - N/A   Partly Cloudy
11:55 PM 71.6 °F 42.8 °F 35% 30.10 in 10.0 mi NE 3.5 mph - N/A   Partly Cloudy